Weather History for KVJI - February, 2014

Change the Weather History Date:

Thursday, February 6, 2014

  Actual Average (KTRI) Record (KTRI)
Temperature  
Mean Temperature 29 °F 37 °F  
Max Temperature 33 °F 48 °F 68 °F (1991)
Min Temperature 25 °F 27 °F 0 °F (1996)
Degree Days  
Heating Degree Days 36 28  
Month to date heating degree days 170  
Since 1 July heating degree days 2824  
Cooling Degree Days 0 0  
Month to date cooling degree days 0  
Year to date cooling degree days 0  
Moisture  
Dew Point 21 °F    
Average Humidity 73    
Maximum Humidity 85    
Minimum Humidity 62    
Precipitation  
Precipitation 0.00 in 0.13 in 1.14 in (1955)
Month to date precipitation 0.75  
Year to date precipitation 4.12  
Snow  
Snow 0.00 in 0.10 in - ()
Month to date snowfall 0.8  
Since 1 July snowfall 8.2  
Snow Depth -    
Sea Level Pressure  
Sea Level Pressure 30.25 in    
Wind  
Wind Speed 6 mph (NNW)    
Max Wind Speed 12 mph    
Max Gust Speed 18 mph    
Visibility 10 miles    
Events Snow    
T = Trace of Precipitation, MM = Missing Value Source: NWS Daily Summary

Daily Weather History Graph

Daily Weather History Graph

Search for Another Location

Airport or City:

Trip Planner

Search our weather history database for the weather conditions in past years. The results will help you decide how hot, cold, wet, or windy it might be!

Date:

Astronomy

Feb. 06, 2014 Rise Set
Actual Time 7:25 AM EST 5:59 PM EST
Civil Twilight 6:58 AM EST 6:26 PM EST
Nautical Twilight 6:28 AM EST 6:56 PM EST
Astronomical Twilight 5:57 AM EST 7:27 PM EST
Moon 11:30 AM EST (2/6) 12:40 AM EST (2/6)
Length of Visible Light 11h 27m
Length of Day
10h 33m
Waxing Crescent, 49% of the Moon is Illuminated
Feb 6
Waxing Crescent
Feb 6
First Quarter
Feb 14
Full
Feb 22
Last Quarter
Mar 1
New

Hourly Weather History & Observations

Time (EST) Temp. Windchill Dew Point Humidity Pressure Visibility Wind Dir Wind Speed Gust Speed Precip Events Conditions
12:15 AM 27.5 °F 20.2 °F 22.1 °F 80% 30.19 in 10.0 mi NW 6.9 mph - N/A   Overcast
12:35 AM 27.5 °F 20.2 °F 22.6 °F 82% 30.19 in 10.0 mi NW 6.9 mph - N/A   Overcast
12:55 AM 27.3 °F 18.4 °F 23.0 °F 84% 30.19 in 10.0 mi NW 9.2 mph - N/A Snow Light Snow
1:15 AM 27.0 °F 17.3 °F 23.0 °F 85% 30.20 in 10.0 mi North 10.4 mph 18.4 mph N/A Snow Light Snow
1:35 AM 26.6 °F 16.8 °F 21.7 °F 82% 30.21 in 10.0 mi North 10.4 mph - N/A   Overcast
1:40 AM 26.6 °F 16.2 °F 21.2 °F 80% 30.20 in 10.0 mi NNW 11.5 mph - N/A   Overcast
1:55 AM 26.6 °F 16.8 °F 20.8 °F 79% 30.21 in 10.0 mi NNW 10.4 mph - N/A Snow Light Snow
2:15 AM 26.6 °F 19.1 °F 20.5 °F 78% 30.22 in 10.0 mi NNW 6.9 mph - N/A Snow Light Snow
2:35 AM 26.6 °F 19.1 °F 20.7 °F 78% 30.22 in 10.0 mi North 6.9 mph - N/A Snow Light Snow
2:39 AM 26.6 °F 18.2 °F 19.4 °F 74% 30.21 in 10.0 mi NNW 8.1 mph - N/A Snow Light Snow
2:55 AM 26.4 °F 17.3 °F 20.3 °F 78% 30.22 in 10.0 mi North 9.2 mph - N/A   Overcast
3:15 AM 26.2 °F 19.6 °F 20.5 °F 79% 30.22 in 7.0 mi North 5.8 mph - N/A Snow Light Snow
3:35 AM 26.1 °F 20.5 °F 21.0 °F 81% 30.22 in 7.0 mi North 4.6 mph - N/A Snow Light Snow
3:39 AM 26.6 °F - 21.2 °F 80% 30.21 in 5.0 mi Calm Calm - N/A Snow Light Snow
3:55 AM 25.9 °F 20.3 °F 21.2 °F 82% 30.21 in 7.0 mi North 4.6 mph - N/A Snow Light Snow
4:15 AM 25.7 °F 19.0 °F 20.3 °F 80% 30.22 in 10.0 mi North 5.8 mph - N/A Snow Light Snow
4:35 AM 25.5 °F 16.9 °F 20.7 °F 82% 30.23 in 7.0 mi NNE 8.1 mph - N/A Snow Light Snow
4:55 AM 25.5 °F 16.9 °F 20.7 °F 82% 30.23 in 7.0 mi North 8.1 mph - N/A Snow Light Snow
5:15 AM 25.5 °F 19.9 °F 20.1 °F 80% 30.23 in 10.0 mi North 4.6 mph - N/A   Overcast
5:35 AM 25.5 °F 18.7 °F 19.8 °F 79% 30.24 in 10.0 mi North 5.8 mph - N/A Snow Light Snow
5:55 AM 25.5 °F 17.8 °F 20.1 °F 80% 30.25 in 10.0 mi NNW 6.9 mph - N/A Snow Light Snow
6:15 AM 25.5 °F 19.9 °F 20.1 °F 80% 30.25 in 7.0 mi North 4.6 mph - N/A Snow Light Snow
6:35 AM 25.3 °F 21.1 °F 19.6 °F 79% 30.24 in 10.0 mi North 3.5 mph - N/A Snow Light Snow
6:55 AM 25.5 °F 17.8 °F 18.7 °F 75% 30.26 in 10.0 mi North 6.9 mph - N/A   Overcast
7:15 AM 25.3 °F 17.6 °F 18.9 °F 76% 30.26 in 10.0 mi North 6.9 mph - N/A   Overcast
7:35 AM 25.2 °F 16.5 °F 19.2 °F 78% 30.27 in 10.0 mi North 8.1 mph - N/A Snow Light Snow
7:55 AM 25.2 °F 18.3 °F 18.5 °F 76% 30.28 in 10.0 mi North 5.8 mph - N/A   Overcast
8:15 AM 25.3 °F 21.1 °F 18.5 °F 75% 30.29 in 10.0 mi North 3.5 mph - N/A Snow Light Snow
8:35 AM 25.3 °F - 18.5 °F 75% 30.30 in 10.0 mi Calm Calm - N/A   Overcast
8:55 AM 25.7 °F - 18.7 °F 75% 30.31 in 10.0 mi Calm Calm - N/A   Overcast
9:15 AM 25.7 °F 21.5 °F 19.2 °F 76% 30.30 in 10.0 mi North 3.5 mph - N/A   Overcast
9:35 AM 26.1 °F 21.9 °F 19.8 °F 77% 30.31 in 10.0 mi NNW 3.5 mph - N/A   Overcast
9:55 AM 26.6 °F - 19.4 °F 74% 30.31 in 10.0 mi Calm Calm - N/A   Scattered Clouds
10:15 AM 27.1 °F - 19.0 °F 72% 30.31 in 10.0 mi Calm Calm - N/A   Scattered Clouds
10:35 AM 28.4 °F 24.6 °F 19.8 °F 70% 30.31 in 10.0 mi SW 3.5 mph - N/A   Scattered Clouds
10:55 AM 28.8 °F 25.0 °F 19.2 °F 68% 30.31 in 10.0 mi WNW 3.5 mph - N/A   Mostly Cloudy
11:15 AM 29.3 °F 24.3 °F 19.6 °F 67% 30.31 in 10.0 mi West 4.6 mph - N/A   Overcast
11:35 AM 31.1 °F - 20.8 °F 66% 30.31 in 10.0 mi Calm Calm - N/A   Scattered Clouds
11:55 AM 30.6 °F 27.1 °F 20.3 °F 66% 30.31 in 10.0 mi West 3.5 mph - N/A   Scattered Clouds
12:15 PM 31.3 °F 24.7 °F 20.8 °F 65% 30.30 in 10.0 mi WSW 6.9 mph - N/A   Scattered Clouds
12:35 PM 32.0 °F - 21.0 °F 64% 30.28 in 10.0 mi Calm Calm - N/A   Scattered Clouds
12:55 PM 31.8 °F - 20.3 °F 62% 30.25 in 10.0 mi Calm Calm - N/A   Scattered Clouds
1:15 PM 32.0 °F 28.7 °F 20.3 °F 62% 30.24 in 10.0 mi WNW 3.5 mph - N/A   Scattered Clouds
1:35 PM 32.0 °F - 21.0 °F 64% 30.23 in 10.0 mi Calm Calm - N/A   Scattered Clouds
1:55 PM 32.5 °F 25.5 °F 21.7 °F 64% 30.23 in 10.0 mi NNW 8.1 mph - N/A   Scattered Clouds
2:15 PM 33.3 °F 27.9 °F 22.6 °F 65% 30.23 in 10.0 mi NNW 5.8 mph - N/A   Overcast
2:35 PM 33.1 °F 26.9 °F 22.3 °F 65% 30.22 in 10.0 mi NW 6.9 mph - N/A   Scattered Clouds
2:55 PM 33.3 °F 28.9 °F 21.7 °F 63% 30.21 in 10.0 mi WSW 4.6 mph - N/A   Mostly Cloudy
3:15 PM 33.1 °F 28.7 °F 21.9 °F 64% 30.22 in 10.0 mi NW 4.6 mph - N/A   Mostly Cloudy
3:35 PM 33.1 °F 27.7 °F 21.9 °F 64% 30.22 in 10.0 mi NW 5.8 mph - N/A   Mostly Cloudy
3:55 PM 33.1 °F 27.7 °F 22.5 °F 65% 30.22 in 10.0 mi West 5.8 mph - N/A   Scattered Clouds
4:15 PM 33.8 °F 29.6 °F 22.8 °F 64% 30.23 in 10.0 mi NW 4.6 mph - N/A   Scattered Clouds
4:35 PM 33.1 °F 30.0 °F 22.8 °F 66% 30.22 in 10.0 mi NNW 3.5 mph - N/A   Mostly Cloudy
4:55 PM 32.9 °F 29.8 °F 22.8 °F 66% 30.22 in 10.0 mi NW 3.5 mph - N/A   Overcast
5:15 PM 32.9 °F 28.5 °F 23.0 °F 67% 30.22 in 10.0 mi WNW 4.6 mph - N/A   Overcast
5:35 PM 32.7 °F 28.3 °F 23.0 °F 67% 30.23 in 10.0 mi WNW 4.6 mph - N/A   Overcast
5:55 PM 32.4 °F 26.9 °F 23.0 °F 68% 30.24 in 10.0 mi NW 5.8 mph - N/A   Overcast
6:15 PM 32.4 °F 26.9 °F 23.2 °F 69% 30.25 in 10.0 mi NW 5.8 mph - N/A   Overcast
6:35 PM 32.2 °F 28.9 °F 23.2 °F 69% 30.27 in 10.0 mi WNW 3.5 mph - N/A   Overcast
6:55 PM 32.2 °F 28.9 °F 23.2 °F 69% 30.28 in 10.0 mi WNW 3.5 mph - N/A   Overcast
7:15 PM 32.0 °F 28.7 °F 23.2 °F 70% 30.27 in 10.0 mi West 3.5 mph - N/A   Overcast
7:35 PM 32.0 °F 26.4 °F 23.4 °F 70% 30.27 in 10.0 mi West 5.8 mph - N/A   Overcast
7:55 PM 32.0 °F - 23.5 °F 71% 30.25 in 10.0 mi Calm Calm - N/A   Overcast
8:15 PM 31.8 °F - 23.9 °F 73% 30.25 in 10.0 mi Calm Calm - N/A   Overcast
8:35 PM 31.6 °F - 23.9 °F 73% 30.25 in 10.0 mi Calm Calm - N/A   Overcast
8:55 PM 31.5 °F 28.1 °F 23.9 °F 74% 30.26 in 10.0 mi North 3.5 mph - N/A   Overcast
9:15 PM 31.5 °F - 23.7 °F 73% 30.25 in 10.0 mi Calm Calm - N/A   Overcast
9:35 PM 31.5 °F - 23.9 °F 74% 30.26 in 10.0 mi Calm Calm - N/A   Overcast
9:55 PM 31.1 °F 27.7 °F 23.7 °F 74% 30.25 in 10.0 mi NNW 3.5 mph - N/A   Overcast
10:15 PM 30.7 °F - 23.7 °F 75% 30.26 in 10.0 mi Calm Calm - N/A   Overcast
10:35 PM 30.7 °F - 23.9 °F 76% 30.26 in 10.0 mi Calm Calm - N/A   Overcast
10:55 PM 30.9 °F - 24.1 °F 76% 30.25 in 10.0 mi Calm Calm - N/A   Overcast
11:15 PM 30.7 °F - 24.3 °F 77% 30.25 in 10.0 mi Calm Calm - N/A   Overcast
11:35 PM 30.7 °F - 24.3 °F 77% 30.25 in 10.0 mi Calm Calm - N/A   Overcast
11:55 PM 30.6 °F - 24.4 °F 78% 30.24 in 10.0 mi Calm Calm - N/A   Overcast